Printer-friendly version

IAU Minor Planet Center

Minor Planet Center

MPEC 2003-F38 : 1993 FS

The following Minor Planet Electronic Circular may be linked-to from your own Web pages, but must not otherwise be redistributed electronically.


Read MPEC 2003-F37 Read MPEC 2003-F39


M.P.E.C. 2003-F38                                Issued 2003 Mar. 26, 04:05 UT

     The Minor Planet Electronic Circulars contain information on unusual
         minor planets and routine data on comets.  They are published
   on behalf of Commission 20 of the International Astronomical Union by the
          Minor Planet Center, Smithsonian Astrophysical Observatory,
                          Cambridge, MA 02138, U.S.A.

             Prepared using the Tamkin Foundation Computer Network

                              MPC@CFA.HARVARD.EDU
          URL http://cfa-www.harvard.edu/iau/mpc.html  ISSN 1523-6714

                                    1993 FS

Additional Observations:
     J93F00S  C2003 03 25.08884 15 39 46.35 -08 48 02.9                      246
     J93F00S  C2003 03 25.09066 15 39 46.64 -08 48 00.6                      246
     J93F00S  C2003 03 25.09159 15 39 46.79 -08 47 59.4                      246
     J93F00S  C2003 03 25.09422 15 39 47.21 -08 47 55.4                      246
     J93F00S  C2003 03 25.12944 15 39 52.64 -08 47 09.1                      246
     J93F00S  C2003 03 25.13039 15 39 52.85 -08 47 07.8                      246
     J93F00S  C2003 03 25.13125 15 39 52.92 -08 47 05.8                      246
     J93F00S  C2003 03 25.13218 15 39 53.08 -08 47 04.8                      246
     J93F00S  C2003 03 26.09419 15 42 26.68 -08 25 23.8                      246
     J93F00S  C2003 03 26.09503 15 42 26.81 -08 25 23.7                      246
     J93F00S  C2003 03 26.09593 15 42 26.97 -08 25 22.1                      246
     J93F00S  C2003 03 26.09687 15 42 27.15 -08 25 22.3                      246
     J93F00S  C2003 03 26.09877 15 42 27.42 -08 25 18.3                      246
     J93F00S  C2003 03 26.09970 15 42 27.60 -08 25 16.9                      246
     J93F00S  C2003 03 26.10074 15 42 27.70 -08 25 16.0                      246

Observer details:
246 Klet Observatory-KLENOT.  Observers M. Tichy, M. Kocer, J. Ticha.  1.06-m
    KLENOT Telescope + CCD.

Orbital elements:
1993 FS
Epoch 2003 June 10.0 TT = JDT 2452800.5                 MPC
M  21.98035              (2000.0)            P               Q
n   0.29694777     Peri.   20.75194     -0.93895324     +0.34403917
a   2.2250990      Node   179.36127     -0.33524011     -0.91362640
e   0.4259188      Incl.   10.14270     -0.07733611     -0.21661912
P   3.32           H   19.8           G   0.15           U   2
Residuals in seconds of arc
930319 809  0.5+  0.9+    930330 691  0.2-  0.1-    030325 246  0.1-  0.6+
930325 691  0.1-  0.6-    930413 691  0.1-  1.5+    030325 246  0.0   0.5+
930325 691  0.4-  0.5-    930413 691  0.0   0.3+    030325 246  0.1+  0.5+
930325 691  0.1+  0.2-    930413 691  0.1-  0.6+    030325 246  0.3+  0.9+
930326 691  0.2+  0.3-    930426 691 (0.6+  3.7-)   030325 246  0.1+  0.1+
930326 691  0.3+  0.2-    930426 691  0.3-  1.4-    030325 246  1.0+  0.1+
930326 691  0.8-  0.5-    930426 691  0.0   1.2-    030325 246  0.1+  1.0+
930326 691  0.3+  0.0     930513 691  0.5-  0.3+    030325 246  0.3+  0.7+
930326 691  0.1-  0.1+    930513 691  0.1+  0.6+    030326 246  0.6-  1.2+
930326 691  0.3-  0.9-    930526 691 (1.5-  2.4+)   030326 246  0.6-  0.1+
930328 691  0.2+  0.9-    930526 691  0.2+  0.2+    030326 246  0.2-  0.5+
930328 691  0.2+  1.0-    930526 691  0.1+  0.1-    030326 246  0.3+  1.0-
930328 691  0.0   0.7-    930613 691  0.0   0.7-    030326 246  0.0   0.4+
930330 691  0.1-  0.1-    930613 691  0.4+  0.5-    030326 246  0.6+  0.6+
930330 691  0.7-  0.2+    930613 691  0.7+  0.5-    030326 246  0.2-  0.0

Ephemeris:
1993 FS                  a,e,i = 2.23, 0.43, 10                  q = 1.2774
Date    TT    R. A. (2000) Decl.     Delta      r     Elong.  Phase     V
2003 03 22    15 31.28   -09 54.4    0.399    1.279   127.4    38.2    19.9
2003 04 01    15 57.14   -06 04.4    0.377    1.278   130.8    36.3    19.7
2003 04 11    16 17.55   -01 50.1    0.366    1.285   134.5    33.8    19.6
2003 04 21    16 31.76   +02 16.3    0.364    1.299   138.3    31.0    19.5
2003 05 01    16 39.70   +05 44.9    0.372    1.321   142.0    28.0    19.5
2003 05 11    16 42.22   +08 11.5    0.389    1.349   145.5    25.1    19.6
2003 05 21    16 41.06   +09 23.2    0.416    1.382   147.9    22.9    19.7
2003 05 31    16 38.13   +09 20.4    0.453    1.421   148.8    21.7    19.9
2003 06 10    16 35.43   +08 12.8    0.501    1.463   147.6    21.8    20.2
2003 06 20    16 34.42   +06 17.9    0.561    1.509   144.7    22.9    20.5
2003 06 30    16 35.80   +03 54.3    0.633    1.558   140.4    24.6    20.9
2003 07 10    16 39.88   +01 17.6    0.718    1.609   135.4    26.3    21.3
2003 07 20    16 46.54   -01 19.9    0.814    1.661   130.0    28.0    21.7

Brian G. Marsden             (C) Copyright 2003 MPC           M.P.E.C. 2003-F38

Read MPEC 2003-F37 Read MPEC 2003-F39


Our Web policy. Index to the CBAT/MPC/ICQ pages.


Valid HTML 4.01!